SCP
0 0 0 0 0 0 0 0 0 0 0 0 0 0 0 0 0 0 0 0 0 0 0 1 1 1 1 1 2 3 4 4 3 3 3 3 3 2 2 2 3 2 2 1
0 0 0 0 0 0 0 0 0 0 0 0 0 0 0 0 0 0 0 0 0 0 0 1 1 1 1 1 2 3 4 4 3 3 3 3 3 3 2 2 2 2 1 1
0 0 0 0 0 0 0 0 0 0 0 0 0 0 0 0 0 0 0 0 0 0 0 1 1 1 1 1 1 3 4 4 3 3 3 3 3 3 2 2 2 1 1 1
0 0 0 0 0 0 0 0 0 0 0 0 0 0 0 0 0 0 0 0 0 0 0 0 1 1 1 1 1 2 4 4 3 3 3 3 3 2 2 2 2 2 1 2
0 0 0 0 0 0 0 0 0 0 0 0 0 0 0 0 0 0 0 0 0 0 0 0 1 1 1 1 1 2 3 4 3 3 2 2 2 2 2 2 2 2 2 2
0 0 0 0 0 0 0 0 0 0 0 0 0 0 0 0 0 0 0 0 0 0 0 0 1 1 1 1 1 1 3 3 3 3 2 2 1 1 1 2 2 2 2 2
0 0 0 0 0 0 0 0 0 0 0 0 0 0 0 0 0 0 0 0 0 0 0 0 1 1 1 1 1 1 2 2 3 2 2 1 1 1 1 1 1 2 2 2
0 0 0 0 0 0 0 0 0 0 0 0 0 0 0 0 0 0 0 0 0 0 0 0 0 1 1 1 1 1 2 2 2 2 2 1 1 1 1 1 1 1 1 2
0 0 0 0 0 0 0 0 0 0 0 0 0 0 0 0 0 0 0 0 0 0 0 0 0 1 1 1 1 1 1 1 2 2 2 1 1 1 1 1 1 1 1 1
0 0 0 0 0 0 0 0 0 0 0 0 0 0 0 0 0 0 0 0 0 0 0 0 0 1 1 1 1 0 0 1 1 1 1 1 1 1 1 1 0 1 1 1
0 0 0 0 0 0 0 0 0 0 0 0 0 0 0 0 0 0 0 0 0 0 0 0 1 1 1 1 1 0 0 0 1 1 1 1 1 1 1 0 0 0 1 1
0 0 0 0 0 0 0 0 0 0 0 0 0 0 0 0 0 0 0 0 0 0 0 0 0 1 1 1 1 0 0 0 0 0 1 1 1 1 1 0 0 0 1 1
0 0 0 0 0 0 0 0 0 0 0 0 0 0 0 0 0 0 0 0 0 0 0 0 0 1 1 1 1 0 0 0 0 0 0 1 1 0 0 0 0 0 0 1
0 0 0 0 0 0 0 0 0 0 0 0 0 0 0 0 0 0 0 0 0 0 0 0 0 0 0 0 0 0 0 0 0 0 0 1 1 1 0 0 0 0 0 1
0 0 0 0 0 0 0 0 0 0 0 0 0 0 0 0 0 0 0 0 0 0 0 0 0 0 0 0 0 0 0 0 0 0 0 1 1 1 1 1 0 0 0 1
0 0 0 0 0 0 0 0 0 0 0 0 0 0 0 0 0 0 0 0 0 0 0 0 0 0 0 0 0 0 0 0 0 0 0 0 1 0 0 1 1 0 0 0
0 0 0 0 0 0 0 0 0 0 0 0 0 0 0 0 0 0 0 0 0 0 0 0 0 0 0 0 0 0 0 0 0 0 0 0 0 0 0 0 1 1 0 0
0 0 0 0 0 0 0 0 0 0 0 0 0 0 0 0 0 0 0 0 0 0 0 0 0 0 0 0 0 0 0 0 0 0 0 0 0 0 0 0 0 0 1 1
0 0 0 0 0 0 0 0 0 0 0 0 0 0 0 0 0 0 0 0 0 0 0 0 0 0 0 0 0 0 0 0 0 0 0 0 0 0 0 0 0 0 1 1
0 0 0 0 0 0 0 0 0 0 0 0 0 0 0 0 0 0 0 0 0 0 0 0 0 0 0 0 0 0 0 0 0 0 0 0 0 0 0 0 0 0 1 1
0 0 0 0 0 0 0 0 0 0 0 0 0 0 0 0 0 0 0 0 0 0 0 0 0 0 0 0 0 0 0 0 0 0 0 0 0 0 0 0 0 0 1 1
0 0 0 0 0 0 0 0 0 0 0 0 0 0 0 0 0 0 0 0 0 0 0 0 0 0 0 0 0 0 0 0 0 0 0 0 0 0 0 0 0 0 0 0
0 0 0 0 0 0 0 0 0 0 0 0 0 0 0 0 0 0 0 0 0 0 0 0 0 0 0 0 0 0 0 0 0 0 0 0 0 0 0 0 0 0 0 0
0 0 0 0 0 0 0 0 0 0 0 0 0 0 0 0 0 0 0 0 0 0 0 0 0 0 0 0 0 0 0 0 0 0 0 0 0 0 0 0 0 0 0 0
0 0 0 0 0 0 0 0 0 0 0 0 0 0 0 0 0 0 0 0 0 0 0 0 0 0 0 0 0 0 0 0 0 0 0 0 0 0 0 0 0 0 0 0
0 0 0 0 0 0 0 0 0 0 0 0 0 0 0 0 0 0 0 0 0 0 0 0 0 0 0 0 0 0 0 0 0 0 0 0 0 0 0 0 0 0 0 0
Wind_Speed
4 4 6 7 7 10 12 14 17 17 14 14 16 18 17 14 14 13 11 10 9 10 9 8 8 7 7 6 6 7 6 7 6 6 7 6 6 5 6 8 11 14 14 14
4 8 10 7 8 11 13 15 17 15 11 13 15 20 18 16 16 13 11 9 8 8 8 7 7 6 7 7 6 6 7 7 7 6 6 6 6 5 6 7 10 13 14 14
8 7 6 8 10 12 13 13 13 15 16 11 15 16 14 11 12 11 9 6 5 8 8 7 6 6 5 6 6 6 7 7 7 6 5 6 5 5 5 7 9 11 14 14
8 7 8 9 10 11 12 10 13 14 12 8 6 11 10 12 10 7 5 4 4 5 7 6 6 5 5 5 5 6 8 8 8 7 7 9 8 8 6 7 8 10 14 14
7 6 7 10 10 10 9 11 13 14 12 13 11 11 9 7 7 4 3 3 4 4 5 5 5 5 5 4 3 5 7 8 8 8 8 9 8 7 5 7 10 11 11 14
13 11 7 7 7 9 9 9 12 11 7 9 10 8 8 4 4 3 3 3 3 4 4 4 5 4 4 3 3 5 6 7 7 8 9 9 8 8 8 9 10 10 8 10
8 9 8 4 5 5 4 4 4 4 3 7 6 6 6 3 3 3 4 3 3 3 4 4 4 4 4 4 4 6 6 7 8 9 9 10 9 10 10 10 11 10 9 9
6 6 3 2 4 4 4 4 3 4 5 7 7 7 5 3 3 3 3 3 3 3 4 4 4 4 4 3 4 5 6 6 7 8 9 9 9 8 7 9 9 10 9 9
5 6 3 3 5 5 4 5 5 6 8 8 8 7 7 4 3 4 5 5 4 4 5 5 4 3 3 3 3 4 5 5 7 8 7 8 9 8 8 9 10 9 9 9
4 8 7 6 5 8 7 4 2 3 5 7 8 8 5 4 5 6 6 6 5 5 5 6 5 4 3 3 3 3 4 5 5 6 7 7 8 8 7 8 11 10 11 10
4 6 7 4 6 7 6 6 5 4 5 5 7 6 3 5 7 8 7 6 5 5 6 6 5 4 4 3 3 3 3 3 3 5 5 6 7 8 7 8 10 11 11 12
3 5 7 9 10 8 8 7 6 5 7 6 7 10 4 5 6 6 7 7 6 5 5 5 6 5 5 4 3 3 3 3 3 4 5 6 6 7 8 8 9 11 11 11
3 4 6 6 4 4 4 6 6 6 6 8 11 12 4 6 7 8 8 8 7 6 5 5 5 5 6 5 4 3 3 3 3 3 5 5 5 6 8 8 9 10 11 11
5 6 9 10 6 3 7 9 8 8 9 11 15 18 15 11 11 10 9 8 8 6 5 5 5 5 6 6 5 4 3 3 2 3 5 5 5 6 6 7 8 10 10 11
5 8 11 16 17 15 15 16 13 14 14 15 18 20 19 13 11 10 9 8 8 7 6 5 5 5 5 6 6 6 5 3 3 4 5 5 5 4 4 5 7 8 10 11
6 7 8 14 15 16 19 19 18 18 17 19 20 22 16 12 9 9 8 8 7 8 7 6 5 5 5 6 6 6 6 5 4 4 4 4 4 4 4 5 6 7 8 9
6 5 5 10 10 12 16 16 16 15 14 14 16 16 11 10 9 8 7 7 7 7 7 7 6 5 5 6 5 6 6 6 4 4 4 4 3 4 5 4 5 6 8 8
8 7 6 6 6 13 10 5 8 11 11 9 9 9 8 9 8 6 6 6 6 6 7 6 6 6 6 6 6 5 5 5 5 5 4 3 3 4 4 4 5 6 6 8
13 9 6 5 8 12 9 7 6 6 8 6 7 8 8 8 7 5 5 5 6 6 6 5 5 6 6 6 6 5 4 4 5 5 5 4 4 4 4 5 5 5 6 6
10 10 8 7 7 8 5 2 1 2 7 3 3 4 5 6 5 5 7 7 7 7 5 5 5 5 6 6 6 6 5 4 5 5 5 4 4 4 5 5 5 4 5 5
6 8 11 12 10 10 6 1 2 3 6 1 1 3 4 4 5 7 8 8 7 7 6 6 6 5 6 5 6 6 5 5 5 5 5 4 4 4 4 4 4 4 5 6
9 7 8 7 10 11 3 2 4 5 2 2 3 3 5 6 7 8 8 8 8 7 7 7 6 6 6 5 5 6 6 6 5 5 5 4 4 4 4 4 4 5 6 7
9 9 6 9 9 4 2 4 4 3 4 4 4 4 5 6 7 8 8 8 8 7 7 6 7 7 6 5 5 6 7 6 6 5 5 4 4 4 4 5 5 5 6 6
6 6 6 7 8 8 6 6 5 5 5 5 4 5 5 7 7 8 8 8 8 8 7 6 6 7 7 6 5 6 6 6 6 6 5 4 4 4 4 4 5 5 6 6
6 4 7 11 10 9 8 6 5 5 5 5 6 5 5 6 7 8 8 9 8 8 7 6 6 7 8 7 6 6 5 5 6 6 5 5 4 4 3 3 4 5 5 7
7 8 9 9 6 5 5 5 5 5 5 6 6 7 6 6 8 9 9 8 8 8 8 7 8 8 8 7 7 6 5 5 6 6 5 4 3 3 3 3 2 2 4 7
Wind_Direction
210 236 249 259 259 278 290 288 287 288 292 291 286 286 288 283 275 266 260 261 263 266 269 257 254 248 245 238 224 211 199 197 194 185 179 180 180 182 185 177 172 172 169 166
249 245 257 282 288 284 282 281 285 289 297 299 288 283 282 274 265 261 255 254 255 264 272 263 254 244 236 233 220 214 206 199 197 192 181 181 179 181 190 179 176 172 169 169
260 266 289 287 284 282 281 280 289 298 308 290 286 281 273 272 264 259 255 251 260 267 270 263 251 246 236 232 220 222 211 203 202 194 184 181 177 177 191 184 177 176 170 169
271 270 275 277 277 281 285 292 299 299 300 290 293 293 283 280 270 253 251 259 261 275 280 269 255 249 242 238 223 224 214 207 202 187 190 188 191 189 197 185 178 179 175 170
267 279 279 275 276 286 280 302 296 286 280 281 271 267 275 264 270 272 276 272 267 267 276 280 276 249 245 241 227 229 219 210 203 189 190 194 199 192 188 182 181 181 178 173
262 266 269 266 280 287 294 301 290 270 260 266 255 248 278 266 281 295 308 312 298 296 286 279 283 266 254 238 225 234 219 211 203 196 197 197 196 192 188 186 183 181 176 176
280 255 228 223 273 273 284 311 313 306 239 248 277 260 257 278 303 305 305 309 301 300 307 299 297 293 273 247 228 225 222 216 204 199 203 202 198 196 195 189 184 179 180 180
295 288 241 195 232 268 253 235 245 277 274 297 307 265 266 305 334 331 329 323 317 318 316 300 291 275 274 271 250 226 221 223 209 201 206 205 200 199 195 193 184 184 186 184
280 278 299 278 256 251 263 236 245 270 281 276 259 262 276 303 346 355 356 354 347 332 319 308 308 289 272 266 266 252 232 230 222 209 205 209 204 201 197 195 188 185 184 182
267 281 277 272 256 230 237 271 279 251 276 272 269 271 280 335 357 355 347 345 342 339 326 317 317 312 286 266 260 253 251 234 235 225 211 214 209 199 198 199 192 185 184 182
247 264 279 260 223 236 223 236 240 246 252 272 284 275 311 344 344 341 334 331 335 331 330 332 321 315 305 285 251 247 261 255 248 243 228 224 211 199 200 208 193 185 182 183
234 256 266 256 249 239 232 232 225 240 256 252 272 272 291 315 323 330 330 330 326 323 325 328 326 327 323 312 283 257 254 256 254 255 244 237 218 199 201 206 198 187 184 185
207 233 281 282 239 220 246 242 241 248 263 259 263 269 286 315 318 321 324 321 324 319 321 324 329 329 326 319 303 276 260 256 256 262 254 236 227 213 204 200 201 190 185 185
222 223 222 244 261 279 271 264 250 243 250 258 256 271 287 301 307 312 317 318 320 317 319 321 327 326 322 320 315 302 281 266 265 260 250 234 229 225 211 202 203 192 185 187
220 244 243 257 268 272 267 264 252 241 242 253 266 273 280 291 297 302 306 308 313 314 314 315 317 316 317 317 318 317 308 288 274 259 252 242 230 232 219 213 205 191 185 187
216 251 263 263 262 265 267 263 257 252 250 254 264 271 277 285 295 302 304 310 314 313 313 314 316 316 314 312 312 311 310 304 281 256 256 251 234 227 225 217 206 190 185 185
210 229 252 264 272 279 264 253 251 248 245 250 258 268 290 298 301 301 303 303 302 305 308 310 312 311 309 306 305 302 300 302 291 269 257 240 233 226 226 219 205 192 187 184
220 227 246 269 273 249 248 248 248 256 255 252 265 280 291 294 293 289 297 306 306 312 313 311 315 316 310 305 304 300 300 295 289 279 266 247 229 229 228 213 212 194 186 187
215 218 236 246 252 266 269 263 250 257 268 269 276 291 301 310 305 290 320 327 317 307 303 302 305 309 309 307 308 301 290 289 285 282 274 255 234 226 219 211 211 197 186 188
208 208 227 239 249 256 261 314 5 296 270 275 280 297 314 330 313 301 330 326 320 318 315 314 312 310 309 308 312 303 288 287 282 280 276 261 246 228 222 213 205 195 185 184
189 208 224 238 250 260 264 250 119 222 255 319 329 305 303 287 270 294 315 316 313 310 311 313 313 310 304 308 311 303 295 289 286 285 280 264 251 235 222 215 197 187 178 173
190 205 214 222 238 251 224 170 207 235 284 312 304 296 295 293 300 309 313 313 313 311 311 311 308 302 301 302 304 300 296 293 290 287 281 271 255 236 214 200 190 185 175 170
204 205 207 211 229 254 220 229 243 269 281 283 286 292 296 296 299 305 307 307 305 303 303 304 301 299 297 292 290 290 293 297 295 288 276 268 258 233 213 199 187 185 179 173
232 218 238 257 258 267 263 256 256 257 267 282 288 289 290 289 294 299 300 301 301 299 300 300 298 296 297 293 283 280 290 295 293 285 277 269 256 236 213 204 191 186 183 175
237 227 241 253 263 277 269 272 284 288 288 292 292 285 282 284 289 291 293 294 294 296 298 297 292 290 291 292 289 286 288 290 289 282 276 274 254 225 209 207 206 201 196 186
229 233 238 250 247 248 265 278 291 290 286 287 289 288 285 283 286 288 286 288 291 294 294 292 289 288 288 287 285 285 284 281 279 277 272 268 251 221 202 187 193 216 192 177